Location: Unspecified
(51.6250°N, 0.8230°E)
Time: 17:54:49
(UTC+00:00)

ISS - Visible Passes

Search period start: 27 January 2021 00:00
Search period end: 06 February 2021 00:00
Orbit: 418 x 421 km, 51.6° (Epoch: 28 January)

Date Brightness Start Highest point End Pass type
(mag) Time Alt. Az. Time Alt. Az. Time Alt. Az.
27 Jan -3.9 18:35:26 10° W 18:38:51 87° N 18:39:13 69° E visible
28 Jan -3.8 17:48:06 10° W 17:51:30 89° N 17:53:50 19° E visible
28 Jan -1.8 19:24:57 10° W 19:26:49 30° W 19:26:49 30° W visible
29 Jan -3.8 18:37:36 10° W 18:40:59 81° S 18:41:27 63° ESE visible
30 Jan -3.8 17:50:14 10° W 17:53:38 90° S 17:56:07 17° E visible
30 Jan -1.8 19:27:06 10° W 19:29:06 29° WSW 19:29:06 29° WSW visible
31 Jan -3.3 18:39:41 10° W 18:43:01 55° SSW 18:43:49 42° SSE visible
01 Feb -3.5 17:52:18 10° W 17:55:41 69° SSW 17:58:37 13° ESE visible
01 Feb -1.4 19:29:26 10° W 19:31:36 21° SW 19:31:36 21° SW visible
02 Feb -2.1 18:41:51 10° W 18:44:53 30° SSW 18:46:30 20° SSE visible
03 Feb -2.5 17:54:23 10° W 17:57:35 41° SSW 18:00:48 10° SE visible
03 Feb -0.7 19:32:58 10° WSW 19:33:43 11° SW 19:34:28 10° SSW visible
04 Feb -0.9 18:44:27 10° WSW 18:46:33 16° SW 18:48:38 10° S visible
05 Feb -1.3 17:56:37 10° W 17:59:19 22° SW 18:01:59 10° SSE visible
